Regional Weather Roundup
Issued by NWS Charleston, WV

Home | Current Version | Previous Version | Text Only | Print | Product List | Glossary Off
Versions: 1 2 3 4 5 6 7 8 9 10 11 12 13 14 15 16 17 18 19 20 21 22 23 24 25 26 27 28 29 30 31 32 33 34 35 36 37 38 39 40 41 42 43 44 45 46 47 48 49 50

000
ASUS41 KRLX 020110
RWRRLX
West Virginia Regional Weather Roundup
National Weather Service Charleston WV
800 PM EST SUN FEB 01 2015

Note: "fair" indicates few or no clouds below 12,000 feet with no
significant weather and/or obstructions to visibility.

WVZ003-020200-
Northern Panhandle of West Virginia

CITY           SKY/WX    TMP DP  RH WIND       PRES   REMARKS
WHEELING       LGT RAIN  38  35  89 SE13G22   29.63F
$$

WVZ009-020200-
Northwest West Virginia

CITY           SKY/WX    TMP DP  RH WIND       PRES   REMARKS
PARKERSBURG    LGT RAIN  42  38  85 S12G17    29.65F
$$

WVZ006-020200-
Western West Virginia

CITY           SKY/WX    TMP DP  RH WIND       PRES   REMARKS
HUNTINGTON     LGT RAIN  45  42  89 S13G22    29.62F
$$

WVZ015-020200-
West Central West Virginia

CITY           SKY/WX    TMP DP  RH WIND       PRES   REMARKS
CHARLESTON     LGT RAIN  45  41  86 VRB6      29.67F
$$

WVZ022-031-020200-
North Central West Virginia

CITY           SKY/WX    TMP DP  RH WIND       PRES   REMARKS
CLARKSBURG     LGT RAIN  39  34  82 SE9       29.70F
MORGANTOWN     LGT RAIN  38  31  76 SE12      29.71F
$$

WVZ025-035-042-045-020200-
Southern West Virginia

CITY           SKY/WX    TMP DP  RH WIND       PRES   REMARKS
BECKLEY        LGT RAIN  39  35  86 SE14G22   29.74F
LOGAN          LGT RAIN  45  41  87 S12G18    29.69F
BLUEFIELD      CLOUDY    44  36  73 S10G24    29.78F
LEWISBURG      LGT RAIN  40  36  85 SE3       29.83F
$$

WVZ047-020200-
Northern Mountains of West Virginia

CITY           SKY/WX    TMP DP  RH WIND       PRES   REMARKS
ELKINS         LGT RAIN  36  34  92 SE10      29.76F
$$

WVZ052-020200-
Eastern Panhandle of West Virginia

CITY           SKY/WX    TMP DP  RH WIND       PRES   REMARKS
MARTINSBURG    CLOUDY    39  20  46 S10       29.94F
PETERSBURG     LGT SNOW  35  32  87 SE5       29.89F
$$



USA.gov is the U.S. government's official web portal to all federal, state and local government web resources and services.